Holdrege, NE

7:13 AM CST on December 10, 2019 (GMT -0600)
Brewster

Weather History for KHDE - October, 2019

Change the Weather History Date:

Saturday, October 19, 2019

  Actual Average Record
Temperature  
Mean Temperature 54 °F -  
Max Temperature 67 °F 61 °F 89 °F (2003)
Min Temperature 40 °F 36 °F 18 °F (1972)
Degree Days  
Heating Degree Days 12    
Growing Degree Days 4 (Base 50)    
Moisture  
Dew Point 36 °F    
Average Humidity 59    
Maximum Humidity 90    
Minimum Humidity 23    
Precipitation  
Precipitation 0.00 in - - ()
Sea Level Pressure  
Sea Level Pressure 29.80 in    
Wind  
Wind Speed 5 mph ()    
Max Wind Speed 14 mph    
Max Gust Speed 21 mph    
Visibility 10.0 miles    
Events      
Averages and records for this station are not official NWS values.
T = Trace of Precipitation, MM = Missing Value Source: Averaged Metar Reports

Daily Weather History Graph

Daily Weather History Graph

Search for Another Location

Airport or City:

Astronomy

Oct. 19, 2019 Rise Set
Actual Time 7:52 AM CDT 6:51 PM CDT
Civil Twilight 7:24 AM CDT 7:19 PM CDT
Nautical Twilight 6:53 AM CDT 7:50 PM CDT
Astronomical Twilight 6:21 AM CDT 8:22 PM CDT
Moon 11:01 PM CDT (10/19) 1:27 PM CDT (10/19)
Length of Visible Light 11h 54m
Length of Day
10h 59m
Waning Gibbous, 69% of the Moon is Illuminated
Oct 19
Waning Gibbous
Oct 21
Last Quarter
Oct 27
New
Nov 4
First Quarter
Nov 12
Full

Hourly Weather History & Observations

Time (CDT) Temp. Windchill Dew Point Humidity Pressure Visibility Wind Dir Wind Speed Gust Speed Precip Events Conditions
12:15 AM 50.4 °F - 46.9 °F 88% 29.73 in 10.0 mi Calm Calm - N/A   Mostly Cloudy
12:35 AM 50.4 °F - 45.9 °F 85% 29.76 in 10.0 mi North 3.5 mph - N/A   Mostly Cloudy
12:55 AM 51.1 °F - 45.5 °F 81% 29.76 in 10.0 mi Calm Calm - N/A   Overcast
1:15 AM 50.0 °F - 44.1 °F 80% 29.77 in 10.0 mi NW 3.5 mph - N/A   Overcast
1:35 AM 50.9 °F - 41.9 °F 71% 29.78 in 10.0 mi NW 5.8 mph - N/A   Scattered Clouds
1:55 AM 50.0 °F - 41.2 °F 72% 29.77 in 10.0 mi NNW 5.8 mph - N/A   Clear
2:15 AM 49.3 °F - 40.6 °F 72% 29.77 in 10.0 mi NNW 5.8 mph - N/A   Clear
2:35 AM 47.1 °F - 40.1 °F 77% 29.78 in 10.0 mi NW 4.6 mph - N/A   Clear
2:55 AM 45.5 °F 42.5 °F 39.6 °F 80% 29.79 in 10.0 mi NW 5.8 mph - N/A   Clear
3:15 AM 43.5 °F 40.1 °F 38.7 °F 83% 29.79 in 10.0 mi WNW 5.8 mph - N/A   Clear
3:35 AM 43.9 °F 41.3 °F 39.0 °F 83% 29.80 in 10.0 mi WNW 4.6 mph - N/A   Clear
3:55 AM 44.2 °F 41.8 °F 38.8 °F 81% 29.81 in 10.0 mi NW 4.6 mph - N/A   Clear
4:15 AM 43.2 °F 41.5 °F 38.5 °F 84% 29.79 in 10.0 mi NW 3.5 mph - N/A   Clear
4:35 AM 41.9 °F - 37.9 °F 86% 29.80 in 10.0 mi Calm Calm - N/A   Clear
4:55 AM 41.9 °F 39.0 °F 38.3 °F 87% 29.81 in 10.0 mi NW 4.6 mph - N/A   Clear
5:15 AM 40.5 °F 38.4 °F 37.6 °F 89% 29.82 in 10.0 mi WNW 3.5 mph - N/A   Clear
5:35 AM 41.0 °F 38.0 °F 37.8 °F 88% 29.83 in 10.0 mi NW 4.6 mph - N/A   Clear
5:55 AM 41.0 °F 37.1 °F 38.3 °F 90% 29.83 in 10.0 mi WNW 5.8 mph - N/A   Clear
6:15 AM 41.4 °F 36.8 °F 38.7 °F 90% 29.83 in 10.0 mi WNW 6.9 mph - N/A   Clear
6:35 AM 41.9 °F 37.5 °F 39.2 °F 90% 29.84 in 10.0 mi WNW 6.9 mph - N/A   Clear
6:55 AM 41.7 °F 38.0 °F 38.7 °F 89% 29.84 in 10.0 mi WNW 5.8 mph - N/A   Clear
7:15 AM 41.0 °F 37.1 °F 37.9 °F 89% 29.85 in 10.0 mi NW 5.8 mph - N/A   Clear
7:35 AM 41.0 °F 36.4 °F 37.9 °F 89% 29.85 in 10.0 mi NW 6.9 mph - N/A   Clear
7:55 AM 41.0 °F 35.8 °F 37.8 °F 88% 29.85 in 10.0 mi WNW 8.1 mph - N/A   Clear
8:15 AM 41.0 °F 35.8 °F 37.6 °F 88% 29.85 in 10.0 mi WNW 8.1 mph - N/A   Clear
8:35 AM 41.7 °F 37.3 °F 38.1 °F 87% 29.86 in 10.0 mi NW 6.9 mph - N/A   Clear
8:55 AM 43.3 °F 39.9 °F 38.8 °F 84% 29.86 in 10.0 mi NW 5.8 mph - N/A   Clear
9:15 AM 45.1 °F 41.4 °F 39.4 °F 80% 29.86 in 10.0 mi NW 6.9 mph - N/A   Clear
9:35 AM 47.5 °F - 40.6 °F 77% 29.86 in 10.0 mi NW 6.9 mph - N/A   Clear
9:55 AM 49.8 °F - 41.4 °F 73% 29.87 in 10.0 mi WNW 5.8 mph - N/A   Clear
10:15 AM 52.5 °F - 42.4 °F 69% 29.87 in 10.0 mi NW 3.5 mph - N/A   Clear
10:35 AM 54.9 °F - 41.9 °F 62% 29.88 in 10.0 mi WNW 6.9 mph - N/A   Clear
10:55 AM 56.8 °F - 42.6 °F 59% 29.88 in 10.0 mi West 6.9 mph - N/A   Clear
11:15 AM 58.5 °F - 41.5 °F 53% 29.88 in 10.0 mi West 8.1 mph - N/A   Clear
11:35 AM 60.1 °F - 41.7 °F 51% 29.87 in 10.0 mi West 5.8 mph - N/A   Clear
11:55 AM 61.9 °F - 38.5 °F 42% 29.87 in 10.0 mi West 4.6 mph - N/A   Clear
12:15 PM 62.4 °F - 36.0 °F 37% 29.86 in 10.0 mi NW 3.5 mph - N/A   Clear
12:35 PM 63.1 °F - 36.9 °F 38% 29.86 in 10.0 mi SW 5.8 mph - N/A   Clear
12:55 PM 63.3 °F - 34.3 °F 34% 29.85 in 10.0 mi South 3.5 mph - N/A   Clear
1:15 PM 63.9 °F - 35.4 °F 35% 29.84 in 10.0 mi SW 8.1 mph - N/A   Clear
1:35 PM 64.2 °F - 34.5 °F 33% 29.83 in 10.0 mi SSW 5.8 mph - N/A   Clear
1:55 PM 65.3 °F - 35.2 °F 33% 29.82 in 10.0 mi SW 6.9 mph - N/A   Clear
2:15 PM 65.5 °F - 34.9 °F 32% 29.81 in 10.0 mi SSW 10.4 mph - N/A   Clear
2:35 PM 65.8 °F - 34.0 °F 31% 29.80 in 10.0 mi WSW 8.1 mph - N/A   Clear
2:55 PM 66.7 °F - 32.0 °F 27% 29.79 in 10.0 mi West 12.7 mph 18.4 mph N/A   Clear
3:15 PM 67.1 °F - 32.4 °F 28% 29.78 in 10.0 mi WSW 9.2 mph 16.1 mph N/A   Clear
3:35 PM 66.6 °F - 32.9 °F 29% 29.78 in 10.0 mi West 8.1 mph - N/A   Clear
3:55 PM 67.8 °F - 31.6 °F 26% 29.76 in 10.0 mi WNW 13.8 mph 19.6 mph N/A   Clear
4:15 PM 67.1 °F - 29.7 °F 25% 29.77 in 10.0 mi West 13.8 mph 20.7 mph N/A   Clear
4:35 PM 66.7 °F - 28.6 °F 24% 29.77 in 10.0 mi WNW 9.2 mph 16.1 mph N/A   Clear
4:55 PM 67.1 °F - 27.7 °F 23% 29.76 in 10.0 mi West 11.5 mph 18.4 mph N/A   Clear
5:15 PM 66.6 °F - 28.0 °F 24% 29.76 in 10.0 mi NW 8.1 mph - N/A   Clear
5:35 PM 66.2 °F - 27.5 °F 23% 29.76 in 10.0 mi WNW 10.4 mph - N/A   Clear
5:55 PM 65.3 °F - 27.9 °F 24% 29.76 in 10.0 mi WNW 8.1 mph - N/A   Clear
6:15 PM 64.2 °F - 28.0 °F 26% 29.76 in 10.0 mi WNW 4.6 mph - N/A   Clear
6:35 PM 62.1 °F - 27.5 °F 27% 29.76 in 10.0 mi Calm Calm - N/A   Clear
6:55 PM 58.8 °F - 28.6 °F 32% 29.76 in 10.0 mi Calm Calm - N/A   Clear
7:15 PM 53.8 °F - 30.0 °F 40% 29.76 in 10.0 mi Calm Calm - N/A   Clear
7:35 PM 52.9 °F - 29.5 °F 41% 29.76 in 10.0 mi Calm Calm - N/A   Clear
7:55 PM 52.0 °F - 29.5 °F 42% 29.77 in 10.0 mi SE 3.5 mph - N/A   Clear
8:15 PM 50.9 °F - 29.1 °F 43% 29.76 in 10.0 mi SE 4.6 mph - N/A   Clear
8:35 PM 49.8 °F - 29.1 °F 45% 29.76 in 10.0 mi SE 3.5 mph - N/A   Clear
8:55 PM 46.2 °F 44.1 °F 30.9 °F 55% 29.76 in 10.0 mi SE 4.6 mph - N/A   Clear
9:15 PM 45.3 °F - 31.1 °F 58% 29.76 in 10.0 mi Calm Calm - N/A   Clear
9:35 PM 45.7 °F 43.4 °F 29.8 °F 54% 29.77 in 10.0 mi SSE 4.6 mph - N/A   Clear
9:55 PM 45.3 °F 44.0 °F 29.7 °F 54% 29.75 in 10.0 mi SE 3.5 mph - N/A   Clear
10:15 PM 41.0 °F 35.8 °F 31.1 °F 68% 29.76 in 10.0 mi SE 8.1 mph - N/A   Clear
10:35 PM 46.2 °F 43.3 °F 31.8 °F 57% 29.76 in 10.0 mi SSE 5.8 mph - N/A   Clear
10:55 PM 47.1 °F - 36.0 °F 65% 29.76 in 10.0 mi SSE 8.1 mph - N/A   Clear
11:15 PM 47.8 °F - 37.4 °F 67% 29.75 in 10.0 mi SSE 6.9 mph - N/A   Clear
11:35 PM 47.3 °F - 37.4 °F 68% 29.75 in 10.0 mi SSE 5.8 mph - N/A   Clear
11:55 PM 47.1 °F - 37.2 °F 68% 29.75 in 10.0 mi SSE 5.8 mph - N/A   Clear